Regional Weather Roundup
Issued by NWS

Home | Current Version | Previous Version | Text Only | Print | Product List | Glossary On
Versions: 1 2 3 4 5 6 7 8 9 10 11 12 13 14 15 16 17 18 19 20 21 22 23 24 25 26 27 28 29 30 31 32 33 34 35 36 37 38 39 40 41 42 43 44 45 46 47 48 49 50
000
ASUS46 KPQR 220210
RWROR

OREGON REGIONAL WEATHER ROUNDUP
NATIONAL WEATHER SERVICE PORTLAND OR
700 PM PDT SUN SEP 21 2014

NOTE: "FAIR" INDICATES FEW OR NO CLOUDS BELOW 12,000 FEET WITH
NO SIGNIFICANT WEATHER AND/OR OBSTRUCTIONS TO VISIBILITY.

ORZ001>013-220300-
NORTHWEST OREGON


CITY           SKY/WX    TMP DP  RH WIND       PRES   REMARKS
ASTORIA        MOCLDY    61  56  83 SW9G24    29.92S
NEWPORT        CLOUDY    59  55  88 S14G22    30.00S FOG
PORTLAND       MOCLDY    83  55  38 S10       29.85R
VANCOUVER WA   CLEAR     82  56  40 NW7       29.85R
SCAPPOOSE      CLEAR     75  58  55 N9        29.85R
HILLSBORO      CLEAR     80  57  45 SW9       29.85R
AURORA         CLEAR     76  54  46 SW10G18   29.88R
MCMINNVILLE    CLEAR     73  53  49 W16       29.89R
SALEM          CLEAR     73  54  51 W9        29.89R
CORVALLIS      CLEAR     66  55  68 W8        29.94R
EUGENE         PTCLDY    66  53  63 W8        29.96R
$$

ORZ021-028-220300-
SOUTHWEST OREGON


CITY           SKY/WX    TMP DP  RH WIND       PRES   REMARKS
NORTH BEND     CLOUDY    63  61  94 W8        29.99S
BROOKINGS      CLOUDY    61  58  90 SE6       30.02S
ROSEBURG       PTCLDY    76  55  48 N10       29.91R
SEXTON SUMMIT  PTCLDY    69  35  28 SW9       30.04R
MEDFORD        PTCLDY    86  37  17 W6        29.87R
$$

ORZ009-041-220300-
COLUMBIA GORGE


CITY           SKY/WX    TMP DP  RH WIND       PRES   REMARKS
TROUTDALE      CLEAR     83  52  34 SW8       29.83R
THE DALLES     PTCLDY    84  52  33 NW9       29.78R
$$

ORZ029>031-042>050-061>064-220300-
EASTERN OREGON


CITY           SKY/WX    TMP DP  RH WIND       PRES   REMARKS
REDMOND        PTCLDY    79  44  28 NW12      29.92R
BEND           MOCLDY    79  43  27 N6        29.96R
KLAMATH FALLS  PTCLDY    76  46  34 W7        29.99S
LAKEVIEW       PTCLDY    75  37  25 S7        30.05S
HERMISTON      MOCLDY    78  56  46 NE5       29.80F
PENDLETON      MOCLDY    77  42  28 NE9       29.84F
JOHN DAY       MOCLDY    80  40  23 NE8       29.96R
MEACHAM        PTCLDY    69  43  38 CALM      29.99F
LA GRANDE      MOCLDY    82  43  24 S15G21    29.92S
BAKER CITY     CLOUDY    76  43  30 S10       29.98S
BURNS          NOT AVBL
ROME             N/A     69  48  47 SE16      30.02R
ONTARIO        CLOUDY    76  50  40 SE8G20    29.97R
$$



USA.gov is the U.S. government's official web portal to all federal, state and local government web resources and services.